Location: Cabri�res
(43.7840°N, 5.4986°E)
Time: 18:51:25
(UTC+00:00)

BREEZE M DEB (TANK) - Pass Details

Date: 09 April 2020
Orbit: 313 x 13666 km, 49.6° (Epoch: 30 May)

Event Time Altitude Azimuth Distance (km) Brightness Sun altitude
Rises 20:38:35 0° 258° (WSW) 5,949 8.6 -24.1°
Reaches altitude 10° 20:44:12 10° 264° (W) 3,472 7.4 -24.8°
Maximum altitude 20:50:41 46° 338° (NNW) 789 3.9 -25.7°
Enters shadow 20:51:07 44° 2° (N) 771 3.7 -25.8°
